TimeCDT,TemperatureF,Dew PointF,Humidity,Sea Level PressureIn,VisibilityMPH,Wind Direction,Wind SpeedMPH,Gust SpeedMPH,PrecipitationIn,Events,Conditions,WindDirDegrees,DateUTC
12:15 AM,65.8,60.1,82,29.77,10.0,SE,9.2,-,N/A,,Overcast,130,2013-03-22 05:15:00
12:35 AM,65.8,60.4,83,29.77,10.0,SE,6.9,-,N/A,,Overcast,130,2013-03-22 05:35:00
12:55 AM,66.2,60.8,83,29.76,10.0,SE,8.1,-,N/A,,Overcast,140,2013-03-22 05:55:00
1:15 AM,66.2,61.2,84,29.75,10.0,SE,10.4,16.1,N/A,,Overcast,130,2013-03-22 06:15:00
1:35 AM,66.2,61.7,85,29.75,10.0,SE,6.9,-,N/A,,Overcast,130,2013-03-22 06:35:00
1:55 AM,66.2,61.7,85,29.74,10.0,SE,9.2,-,N/A,,Overcast,140,2013-03-22 06:55:00
2:15 AM,66.4,62.4,87,29.74,10.0,SE,8.1,-,N/A,,Overcast,140,2013-03-22 07:15:00
2:35 AM,66.4,63.1,89,29.73,10.0,SSE,6.9,-,N/A,,Overcast,150,2013-03-22 07:35:00
2:55 AM,66.6,63.9,91,29.73,10.0,SSE,6.9,-,N/A,,Overcast,160,2013-03-22 07:55:00
3:15 AM,66.7,64.4,92,29.72,10.0,North,-9999.0,-,N/A,,Overcast,0,2013-03-22 08:15:00
3:35 AM,67.1,64.9,93,29.71,10.0,SSE,8.1,-,N/A,,Overcast,150,2013-03-22 08:35:00
3:55 AM,67.1,65.3,94,29.71,10.0,SSE,8.1,-,N/A,,Overcast,160,2013-03-22 08:55:00
4:35 AM,67.1,65.8,96,29.69,10.0,SSE,5.8,-,N/A,,Overcast,160,2013-03-22 09:35:00
4:55 AM,67.3,66.2,96,29.70,10.0,South,8.1,-,N/A,,Overcast,170,2013-03-22 09:55:00
5:15 AM,67.3,66.2,96,29.70,10.0,South,6.9,-,N/A,,Overcast,180,2013-03-22 10:15:00
5:35 AM,67.5,66.6,97,29.70,10.0,South,6.9,-,N/A,,Overcast,180,2013-03-22 10:35:00
5:55 AM,67.6,67.1,98,29.71,10.0,South,6.9,-,N/A,,Overcast,190,2013-03-22 10:55:00
6:15 AM,68.0,67.1,97,29.72,10.0,South,8.1,-,N/A,,Overcast,180,2013-03-22 11:15:00
6:35 AM,68.0,67.3,98,29.72,10.0,South,6.9,-,N/A,,Overcast,170,2013-03-22 11:35:00
6:55 AM,68.0,67.6,99,29.72,10.0,South,10.4,-,N/A,,Overcast,180,2013-03-22 11:55:00
7:15 AM,68.0,67.6,99,29.72,10.0,South,6.9,-,N/A,,Overcast,170,2013-03-22 12:15:00
7:35 AM,67.6,67.5,99,29.73,7.0,South,8.1,-,N/A,,Overcast,170,2013-03-22 12:35:00
7:55 AM,67.6,67.6,100,29.74,7.0,South,5.8,-,N/A,,Overcast,170,2013-03-22 12:55:00
8:15 AM,68.9,68.4,98,29.74,7.0,South,6.9,-,N/A,,Overcast,180,2013-03-22 13:15:00
8:35 AM,69.4,68.9,98,29.75,7.0,South,9.2,-,N/A,,Overcast,170,2013-03-22 13:35:00
8:55 AM,70.0,69.1,97,29.75,7.0,South,5.8,-,N/A,,Overcast,170,2013-03-22 13:55:00
9:15 AM,71.1,69.4,95,29.75,7.0,South,9.2,-,N/A,,Overcast,180,2013-03-22 14:15:00
9:35 AM,72.0,69.4,92,29.76,7.0,South,9.2,16.1,N/A,,Overcast,190,2013-03-22 14:35:00
9:55 AM,73.0,69.6,89,29.76,10.0,South,9.2,18.4,N/A,,Overcast,180,2013-03-22 14:55:00
10:15 AM,73.8,69.8,87,29.76,10.0,South,8.1,-,N/A,,Overcast,190,2013-03-22 15:15:00
10:55 AM,74.7,69.1,83,29.78,10.0,SSW,6.9,-,N/A,,Overcast,200,2013-03-22 15:55:00
11:15 AM,76.5,68.2,75,29.78,10.0,SW,6.9,-,N/A,,Overcast,230,2013-03-22 16:15:00
12:15 PM,81.1,66.9,62,29.76,10.0,SSW,13.8,18.4,N/A,,Mostly Cloudy,200,2013-03-22 17:15:00
12:35 PM,79.0,67.8,69,29.76,10.0,South,8.1,-,N/A,,Mostly Cloudy,190,2013-03-22 17:35:00
12:55 PM,80.4,67.5,65,29.75,10.0,South,11.5,17.3,N/A,,Mostly Cloudy,180,2013-03-22 17:55:00
1:15 PM,80.4,67.8,65,29.74,10.0,South,12.7,-,N/A,,Overcast,190,2013-03-22 18:15:00
1:35 PM,80.1,67.5,65,29.73,10.0,South,9.2,17.3,N/A,,Overcast,180,2013-03-22 18:35:00
1:55 PM,81.3,67.3,62,29.72,10.0,South,13.8,19.6,N/A,,Overcast,180,2013-03-22 18:55:00
2:15 PM,79.0,67.1,67,29.72,10.0,South,12.7,20.7,N/A,,Overcast,190,2013-03-22 19:15:00
2:35 PM,79.7,67.3,66,29.71,10.0,South,11.5,17.3,N/A,,Overcast,180,2013-03-22 19:35:00
2:55 PM,81.7,66.6,60,29.70,10.0,South,12.7,18.4,N/A,,Mostly Cloudy,190,2013-03-22 19:55:00
3:15 PM,80.4,66.7,63,29.70,10.0,SSW,11.5,19.6,N/A,,Mostly Cloudy,200,2013-03-22 20:15:00
3:35 PM,78.4,66.9,68,29.70,10.0,South,10.4,18.4,N/A,,Overcast,190,2013-03-22 20:35:00
3:55 PM,79.0,67.1,67,29.69,10.0,South,15.0,21.9,N/A,,Overcast,190,2013-03-22 20:55:00
4:15 PM,80.1,67.3,65,29.69,10.0,South,16.1,19.6,N/A,,Overcast,190,2013-03-22 21:15:00
4:35 PM,78.8,67.1,67,29.70,10.0,South,13.8,19.6,N/A,,Overcast,190,2013-03-22 21:35:00
4:55 PM,79.2,67.6,68,29.70,10.0,SSW,12.7,-,N/A,,Overcast,200,2013-03-22 21:55:00
5:15 PM,78.3,68.0,71,29.70,10.0,South,12.7,-,N/A,,Overcast,190,2013-03-22 22:15:00
5:35 PM,79.0,68.2,69,29.71,10.0,South,9.2,-,N/A,,Overcast,180,2013-03-22 22:35:00
5:55 PM,77.9,68.2,72,29.71,10.0,South,10.4,18.4,N/A,,Overcast,190,2013-03-22 22:55:00
6:15 PM,77.4,68.0,73,29.71,10.0,South,11.5,-,N/A,,Mostly Cloudy,190,2013-03-22 23:15:00
6:35 PM,76.5,68.2,75,29.71,10.0,SSW,11.5,-,N/A,,Scattered Clouds,200,2013-03-22 23:35:00
6:55 PM,74.7,67.5,78,29.72,10.0,SSW,10.4,-,N/A,,Scattered Clouds,200,2013-03-22 23:55:00
7:15 PM,73.8,67.5,81,29.72,10.0,SSW,8.1,-,N/A,,Scattered Clouds,200,2013-03-23 00:15:00
7:35 PM,72.5,67.8,85,29.73,10.0,South,3.5,-,N/A,,Clear,190,2013-03-23 00:35:00
7:55 PM,71.6,68.9,91,-9999,10.0,South,3.5,-,N/A,,Clear,170,2013-03-23 00:55:00
8:15 PM,71.1,69.3,94,29.74,10.0,Calm,Calm,-,N/A,,Clear,0,2013-03-23 01:15:00
8:35 PM,70.0,69.1,97,29.74,10.0,Calm,Calm,-,N/A,,Clear,0,2013-03-23 01:35:00
8:55 PM,69.8,69.1,98,29.75,10.0,Calm,Calm,-,N/A,,Mostly Cloudy,0,2013-03-23 01:55:00
9:15 PM,68.9,68.9,100,29.75,7.0,SE,3.5,-,N/A,,Scattered Clouds,140,2013-03-23 02:15:00
9:35 PM,68.7,68.7,100,29.76,7.0,SSE,3.5,-,N/A,,Clear,150,2013-03-23 02:35:00
9:55 PM,68.7,68.7,100,29.76,7.0,SSE,4.6,-,N/A,,Mostly Cloudy,150,2013-03-23 02:55:00
10:15 PM,69.4,69.4,100,29.77,7.0,South,6.9,-,N/A,,Overcast,170,2013-03-23 03:15:00
10:35 PM,69.3,69.3,100,29.77,4.0,South,5.8,-,N/A,,Overcast,170,2013-03-23 03:35:00
10:55 PM,69.3,69.3,100,29.77,5.0,South,5.8,-,N/A,,Overcast,170,2013-03-23 03:55:00